ARIANE 5 R/B, 41795

Orbit data source: Space-Track

ARIANE 5 R/B, 41795 is space debris in HEO originally from a launch on Wed, 05 Oct 2016 UTC launched from the French Guiana (FRGUI). Debris objects in space refer to the collection of defunct objects orbiting the Earth. Examples of debris include non-operational satellites, rocket bodies, and fragments generated from explosions, collisions, or faulty payload assembly.

Loading next visibility...
Identifier
41795, 2016-060C
Orbit
HEO
Country
Flag of FRFR
Related business
Manufacturer
Airbus Safran
Mission
Spacecraft
Bus & Motor
ESC-A, Unknown motor
Mass
~5,000 kg wet, ~5,000 kg dry
Launch date (UTC)
2016-10-05 (9 years ago)
Launch vehicle
Unknown
Launch site
French Guiana (FRGUI)
Object type
Payload
Rocket body
Debris
Shape & HBR
Cyl + 1 Nozzle, 3.5 m
Radar Cross Section
41.627 m², Large (>1 m²)

Expand to show TLE details & history
Last TLE update: 2 days ago

TLE from 2 days ago
0 ARIANE 5 R/B
1 41795U 16060C   25258.05771101  .00017863  00000-0  17381-2 0  9990
2 41795   5.8860  96.5255 6949886 247.3263  29.0380  2.73169625 80117
Epoch: 2025-09-15T01:23Z
TLE epoch observation values (Epoch: 2025-09-15T01:23:06.231Z)
Latitude
-0.00004°
Longitude
81.75209°
Altitude
8,923.916 km
Speed
5.801 km/s
True Right ascension
06h 27m 11s
True Declination
0° 00' 00"
Sunlit
Object was in daylight at epoch
Visualization orbit readout
Latitude
Unknown
Longitude
Unknown
Altitude
Unknown
Speed
Unknown
Apparent Right ascension
Unknown
Apparent Declination
Unknown
Sunlit
N/A
Visualization observer readout
Local Sidereal Time
09:26:59
Azimuth
Unknown
Elevation
Unknown
Doppler factor
Unknown
Orbital elements
Apogee altitude
30,270.318 km
Perigee altitude
216.714 km
Semi-major axis
21,621.653 km
Eccentricity
0.69499
Inclination
5.886°
RAAN
96.5255°
Arg. of periapsis
247.3263°
True anomaly
112.86604°
Mean anomaly
29.038°
Eccentric anomaly
65.1797°
Mean motion
0.68267 °/min
Orbital period
527.34 mins
BSTAR
0.0017381
Loading maneuver chart data...
Computing Atmospheric mass density...
Loading historical data...
Loading historical data...
Loading historical data...
Loading historical data...
Loading historical data...
Loading historical data...
Loading historical data...
Other satellites on launch #60 in the year 2016 (2016-10-05 UTC)

Documentation

Showing up to 5 results
|